Home > Weather > Eckernförde > Past weeks

Flag for Germany Weather for the Past 2 Weeks in Eckernförde, Schleswig-Holstein, Germany

Now
46 °F

Cool.


Feels Like: 39 °F
Forecast: 41 / 47 °F
Wind: 17 mph from Southwest

Location: Schleswig-Jagel

Current Time: Feb 7, 2016 at 2:29:40 PM

Latest Report: Feb 7, 2016 at 1:20 PM


Visibility: 4 mi

Pressure: 29.39 "Hg

Humidity: 87%

Dew point: 43 °F

Location of EckernfördeLocation

Historic Weather in Eckernförde — Graph

°F

Eckernförde Temperature Yesterday

Maximum temperature yesterday: 48 °F (at 12:20 PM)
Minimum temperature yesterday: 46 °F (at 12:20 AM)
Average temperature yesterday: 47 °F

High & Low Weather Summary for the Past Weeks

 TemperatureHumidityPressure
High52 °F (Jan 27, 8:20 PM)100% (Jan 23, 5:20 PM)30.42 "Hg (Jan 23, 5:20 PM)
Low32 °F (Feb 4, 8:20 PM)67% (Feb 7, 10:20 AM)29.39 "Hg (Feb 7, 7:20 AM)
Average43 °F88%29.85 "Hg
* Reported Jan 23 12:20 PM — Feb 7 12:20 PM, Eckernförde, Weather by CustomWeather, © 2016

Note: Actual official high and low records may vary slightly from our data, if they occured in-between our weather recording intervals... More about our weather records

Advertising

Eckernförde Weather History for the Previous 24 Hours

 ConditionsComfort  
Time TempWeatherWind HumidityBarometerVisibility
12:20 PM
Sun, Feb 7
50 °FCool.16 mph71%29.39 "Hg4 mi
11:20 AM50 °FCool.18 mph67%29.39 "Hg4 mi
10:20 AM50 °FCool.20 mph67%29.39 "Hg4 mi
9:20 AM48 °FCool.17 mph71%29.39 "Hg4 mi
8:20 AM46 °FCool.17 mph71%29.42 "Hg4 mi
7:20 AM46 °FCool.17 mph71%29.39 "Hg4 mi
6:20 AM46 °FCool.18 mph71%29.42 "Hg4 mi
5:20 AM46 °FCool.17 mph71%29.42 "Hg4 mi
4:20 AM46 °FCool.20 mph76%29.45 "Hg4 mi
3:20 AM46 °FCool.16 mph76%29.47 "Hg4 mi
2:20 AM46 °FCool.17 mph76%29.50 "Hg4 mi
1:20 AM46 °FCool.17 mph76%29.53 "Hg4 mi
12:20 AM46 °FCool.15 mph76%29.56 "Hg4 mi
11:20 PM
Sat, Feb 6
46 °FCool.12 mph76%29.56 "Hg4 mi
9:20 PM48 °FCool.12 mph71%29.59 "Hg4 mi
8:20 PM48 °FCool.13 mph71%29.62 "Hg3 mi
7:20 PM48 °FCool.14 mph76%29.65 "Hg3 mi
6:20 PM48 °FCool.13 mph76%29.68 "Hg3 mi
5:20 PM48 °FCool.14 mph76%29.68 "Hg3 mi
4:20 PM48 °FCool.12 mph76%29.68 "Hg4 mi
3:20 PM48 °FCool.9 mph82%29.71 "Hg4 mi
2:20 PM48 °FCool.13 mph87%29.71 "Hg3 mi
Weather by CustomWeather, © 2016

See weather overviewHow to use our weather pages